Portada
METAR-TAF:

METAR-TAF

Aeropuertos :

Shahrekord, Irán

latitud: 32-20N, longitud: 050-51E, altitud: 2078 m

Observación

El informe se hizo hace 52 minutos, a las 05:00 UTC
Viento 14 kt del sur
Temperatura 10°C
Humedad 66%
Presión 1012 hPa
Visibilidad 10 km o más
Escasas nubes a una altura de 2500 ft
Escasas nubes a una altura de 3000 ft, Cumulonimbus.
Nubes dispersas a una altura de 3500 ft
Cielo nuboso a una altura de 8000 ft

METAR: OIFS 250500Z 18014KT 9999 FEW025 FEW030CB SCT035 BKN080 10/04 Q1012 A2989 RESHRA

Hora: 10:22 (05:52 UTC)


TAF: falta

Observaciones y pronósticos meteorológicos de más de 4000 aeropuertos (mensajes METAR y TAF).

Los puntos amarillos y rojos representan las estaciones disponibles.

Ponga el ratón en el punto deseado para ver el nombre de la estación.

Haga clic para ver las observaciones y los pronósticos meteorológicos.

Para cambiar el mapa : haga clic en los botones verdes con una cruz de color negro para hacer un zoom, en el botón verde con un guión para alejar o en las flechas verdes para mapas adyacentes.


METAR-TAF: